Regional Weather Roundup
Issued by NWS

Home | Current Version | Previous Version | Graphics & Text | Print | Product List | Glossary On
Versions: 1 2 3 4 5 6 7 8 9 10 11 12 13 14 15 16 17 18 19 20 21 22 23 24 25 26 27 28 29 30 31 32 33 34 35 36 37 38 39 40 41 42 43 44 45 46 47 48 49 50
084
ASUS44 KJAN 192203
RWRMS

MISSISSIPPI HOURLY WEATHER ROUNDUP
NATIONAL WEATHER SERVICE JACKSON MS
500 PM CDT SUN OCT 19 2014

NOTE: "FAIR: INDICATES FEW OR NO CLOUDS BELOW 12,000 FEET WITH NO
SIGNIFICANT WEATHER AND/OR OBSTRUCTIONS TO VISIBILITY.

MSZ001>002-007>008-010>013-018>021-025>028-034>036-192300-
NORTHWEST MISSISSIPPI

CITY           SKY/WX    TMP DP  RH WIND       PRES   REMARKS
CLARKSDALE     FAIR      68  46  45 NE5       30.11F
CLEVELAND      FAIR      69  49  48 NE5       30.10S
GREENWOOD      SUNNY     71  48  43 N5        30.09F
GREENVILLE     SUNNY     70  44  39 VRB3      30.09F
GRENADA          N/A    N/A N/A N/A MISG        N/A
OLIVE BRANCH   MOSUNNY   64  48  55 NE5       30.11F
OXFORD         FAIR      66  46  48 NE5       30.12F
TUNICA         CLEAR     66  45  45 N6        30.11F
$$

MSZ003>006-009-014>017-022>024-029>033-037>039-192300-
NORTHEAST MISSISSIPPI

CITY           SKY/WX    TMP DP  RH WIND       PRES   REMARKS
COLUMBUS AFB   SUNNY     70  46  42 NE1       30.09F
CORINTH        FAIR      66  46  48 CALM        N/A
GOLDN TRIANGLE SUNNY     72  46  40 N5        30.09
TUPELO         SUNNY     67  46  47 N6        30.10F
$$

MSZ040-058-192300-
CENTRAL MISSISSIPPI

CITY           SKY/WX    TMP DP  RH WIND       PRES   REMARKS
JACKSON INTL   MOSUNNY   72  45  37 N7        30.08F
JACKSON HAWKNS SUNNY     73  43  33 N5        30.08F
MERIDIAN KEY   SUNNY     72  44  36 N5        30.07F
MERIDIAN NAS   SUNNY     72  44  36 CALM      30.07F
RAYMOND        FAIR      73  68  83 CALM      30.09S
VICKSBURG      SUNNY     72  44  36 NE6       30.09S
$$

MSZ059>079-192300-
SOUTH MISSISSIPPI

CITY           SKY/WX    TMP DP  RH WIND       PRES   REMARKS
BROOKHAVEN     FAIR      72  48  43 CALM      30.09S
COLUMBIA         N/A    N/A N/A N/A MISG        N/A
HATTIESBURG    SUNNY     74  45  35 N7        30.07S
MCCOMB         SUNNY     74  46  36 N6        30.06F
NATCHEZ        SUNNY     72  52  49 N8        30.08S
PINE BELT      SUNNY     73  43  33 N5        30.09S
$$

MSZ080>082-192300-
COASTAL MISSISSIPPI

CITY           SKY/WX    TMP DP  RH WIND       PRES   REMARKS
BILOXI         SUNNY     73  54  50 S6        30.04F
PASCAGOULA     SUNNY     73  54  51 S6        30.05R
GULFPORT       SUNNY     74  53  48 S6        30.04S
$$



USA.gov is the U.S. government's official web portal to all federal, state and local government web resources and services.